User: anonymous   Login
Location: Unspecified
(0.0000°N, 0.0000°E)
Time: 06:06:17
(UTC+00:00)
Language:

USA 186 - Orbit

View from above orbital plane
View from above orbital plane
View from above satellite
View from above satellite

Ground track
Ground track

The orbit data is extracted from the following two-line orbital elements,

1 28888U 05042A   16031.72786859 0.00025300  00000-0  11439-3 0    02
2 28888  96.9059  71.2768 0125046 220.3991 139.0482 15.72944907    04
Epoch (UTC): 31 January 2016 17:28:07
Eccentricity: 0.0125046
inclination: 96.9059°
perigee height: 266 km
apogee height: 434 km
right ascension of ascending node: 71.2768°
argument of perigee: 220.3991°
revolutions per day: 15.72944907
mean anomaly at epoch: 139.0482°
orbit number at epoch: 0

The dashed part of the orbit path shows where the satellite is in the earth's shadow,  

DLR